Content
SEND FEEDBACK

Daily
Averages
Monthly
Summary
United States of America

BOSTON, MASSACHUSETTS


Home > North America > United States > Massachusetts
Elevation: 4 feet     Latitude: 42 22N     Longitude: 071 02W

WEATHER
 
SELECT A DAY
Number of Records: 204,732;   Date Range: 1/1/95 - 9/29/14
 
SHARE

PRINT THIS DATA

[ ← Previous Day ]
WEATHER ALMANAC - JUNE 26, 2013
[ Next Day → ]
[ °C ]   °F
Weather ElementAverageHighLow
Temperature72.3 °F84 °F (10:54 am)64.9 °F (11:54 pm)
Dewpoint66.1 °F66.9 °F (1:54 am)64 °F (11:54 pm)
Humidity81.6 %100 % (10:37 pm)55 % (10:54 am)
Barometer29.80 in29.86 in (9:54 pm)29.72 in (2:54 am)
Wind Speed6.8 mph10.4 mph (8:54 am)
Weather ElementAverage
Visibility6.3 mi
Wind DirectionSE (133.8 °)

Weather ElementTotal
Precipitation0.04 in
Cooling Degree Days9.5 (Base 65)
Growing Degree Days24.5 (Base 50)
Averaged from 34 records on June 26, 2013
WEATHER CONDITIONS BREAKOUT
WIND DIRECTION BREAKOUT
WEATHER BY HOUR - JUNE 26, 2013
[ °C ]   °F
Local TimeTemperatureDewpointHumidityBarometerVisibilityWind DirectionWind SpeedGust SpeedPrecipitationEventsConditions
1:54 AM73.9 °F66.9 °F79 %29.74 in10.0 miWest (280°)9.2 mphScattered Clouds
2:54 AM75.9 °F66.0 °F71 %29.72 in10.0 miWest (270°)9.2 mphScattered Clouds
3:54 AM75.0 °F66.0 °F73 %29.73 in10.0 miWest (270°)8.1 mphPartly Cloudy
4:54 AM75.0 °F66.0 °F73 %29.75 in10.0 miWest (280°)8.1 mphClear
5:54 AM75.9 °F66.0 °F71 %29.75 in10.0 miWest (280°)9.2 mphMostly Cloudy
6:54 AM77.0 °F66.0 °F69 %29.75 in10.0 miWNW (300°)9.2 mphMostly Cloudy
7:54 AM79.0 °F66.0 °F64 %29.75 in10.0 miWest (280°)8.1 mphMostly Cloudy
8:54 AM81.0 °F66.0 °F60 %29.76 in10.0 miNNW (330°)10.4 mphMostly Cloudy
9:54 AM81.0 °F66.0 °F60 %29.77 in10.0 miWest (270°)9.2 mphMostly Cloudy
10:54 AM84.0 °F66.0 °F55 %29.76 in10.0 miCalmScattered Clouds
11:54 AM82.9 °F66.9 °F58 %29.76 in10.0 miESE (120°)8.1 mphMostly Cloudy
12:54 PM73.9 °F66.9 °F79 %29.78 in9.0 miSE (140°)9.2 mphOvercast
1:54 PM73.9 °F66.9 °F79 %29.77 in10.0 miENE (70°)6.9 mph0.04 inMostly Cloudy
2:54 PM75.0 °F66.0 °F73 %29.77 in10.0 miEast (80°)6.9 mphMostly Cloudy
3:54 PM73.0 °F66.9 °F81 %29.77 in10.0 miESE (110°)6.9 mphMostly Cloudy
4:54 PM73.0 °F66.9 °F81 %29.77 in10.0 miENE (70°)5.8 mphOvercast
5:54 PM72.0 °F66.0 °F81 %29.78 in10.0 miEast (100°)5.8 mph0.00 inOvercast
6:38 PM69.8 °F66.2 °F88 %29.81 in7.0 miENE (70°)8.1 mph0.00 inRainLight Rain
6:54 PM69.1 °F66.9 °F93 %29.81 in5.0 miEast (80°)6.9 mph0.00 inRainLight Rain
7:18 PM69.8 °F66.2 °F88 %29.81 in7.0 miEast (80°)5.8 mph0.00 inMostly Cloudy
7:54 PM69.1 °F66.0 °F90 %29.82 in6.0 miEast (80°)3.5 mph0.00 inMostly Cloudy
8:35 PM68.0 °F66.2 °F94 %29.82 in2.0 miSE (130°)4.6 mphMostly Cloudy
8:54 PM68.0 °F66.0 °F93 %29.83 in0.5 miEast (80°)4.6 mphMostly Cloudy
9:04 PM68.0 °F66.2 °F94 %29.84 in1.5 miENE (60°)3.5 mphMostly Cloudy
9:19 PM68.0 °F66.2 °F94 %29.84 in2.0 miNE (50°)4.6 mphOvercast
9:31 PM69.8 °F66.2 °F88 %29.85 in2.0 miNE (40°)5.8 mphOvercast
9:49 PM69.8 °F66.2 °F88 %29.85 in2.5 miENE (60°)6.9 mphOvercast
9:54 PM69.1 °F66.0 °F90 %29.86 in2.5 miENE (70°)6.9 mphOvercast
10:16 PM68.0 °F64.4 °F88 %29.85 in2.5 miEast (80°)5.8 mphMostly Cloudy
10:24 PM68.0 °F66.2 °F94 %29.86 in2.5 miEast (80°)6.9 mphOvercast
10:37 PM66.2 °F66.2 °F100 %29.85 in1.5 miENE (70°)6.9 mphOvercast
10:44 PM66.2 °F64.4 °F94 %29.85 in0.5 miEast (100°)5.8 mphOvercast
10:54 PM66.0 °F64.9 °F96 %29.86 in0.5 miEast (90°)5.8 mphOvercast
11:54 PM64.9 °F64.0 °F97 %29.85 in0.2 miEast (80°)6.9 mphFogFog
Hourly data recorded from KBOS, located miles away from Boston, Massachusetts







STORIES FROM OUR PARTNERS